Location: Valencia
(39.4696°N, 0.3770°W)
Time: 04:19:17
(UTC+02:00)

ISS - Visible Passes

Search period start: 23 September 2014 00:00
Search period end: 03 October 2014 00:00
Orbit: 414 x 416 km, 51.6° (Epoch: 22 September)

Date Brightness Start Highest point End Pass type
(mag) Time Alt. Az. Time Alt. Az. Time Alt. Az.
23 Sep -0.1 05:28:50 10° N 05:28:50 10° N 05:28:58 10° NNE visible
23 Sep -0.5 07:04:14 10° NNW 07:05:42 12° NNE 07:07:11 10° NE visible
24 Sep -0.4 06:15:34 10° N 06:16:28 11° N 06:17:23 10° NNE visible
25 Sep -0.8 07:02:33 10° NNW 07:04:58 18° NNE 07:07:22 10° ENE visible
26 Sep -0.5 06:13:51 10° NNW 06:15:44 14° NNE 06:17:38 10° NE visible
27 Sep -0.1 05:27:00 12° NNE 05:27:00 12° NNE 05:27:47 10° NE visible
27 Sep -1.7 07:00:51 10° NW 07:03:55 33° NNE 07:06:59 10° E visible
28 Sep -1.1 06:13:07 16° NNW 06:14:44 23° NNE 06:17:28 10° E visible
29 Sep -0.3 05:26:27 15° NE 05:26:27 15° NE 05:27:45 10° ENE visible
29 Sep -3.3 06:59:21 11° NW 07:02:34 87° NE 07:05:53 10° SE visible
30 Sep -2.5 06:12:49 42° N 06:13:26 48° NNE 06:16:40 10° ESE visible
01 Oct -0.2 05:26:24 15° E 05:26:24 15° E 05:27:12 10° E visible
01 Oct -2.4 06:59:19 20° W 07:00:53 31° SW 07:03:50 10° SSE visible
02 Oct -2.0 06:13:04 32° SSE 06:13:04 32° SSE 06:15:04 10° SE visible
